SCP
0 0 0 0 0 0 0 0 0 0 0 0 0 0 0 0 0 0 0 0 0 0 0 0 0 0 0 0 0 0 0 0 0 0 0 0 0 0 0 0 0 0 0 0
0 0 0 0 0 0 0 0 0 0 0 0 0 0 0 0 0 0 0 0 0 0 0 0 0 0 0 0 0 0 0 0 0 0 0 0 0 0 0 0 0 0 0 0
0 0 0 0 0 0 0 0 0 0 0 0 0 0 0 0 0 0 0 0 0 0 0 0 0 0 0 0 0 0 0 0 0 0 0 0 0 0 0 0 0 0 0 0
0 0 0 0 0 0 0 0 0 0 0 0 0 0 0 0 0 0 0 0 0 0 0 0 0 0 0 0 0 0 0 0 0 0 0 0 0 0 0 0 0 0 0 0
0 0 0 0 0 0 0 0 0 0 0 0 0 0 0 0 0 0 0 0 0 0 0 0 0 0 0 0 0 0 0 0 0 0 0 0 0 0 0 0 0 0 0 0
0 0 0 0 0 0 0 0 0 0 0 0 0 0 0 0 0 0 0 0 0 0 0 0 0 0 0 0 0 0 0 0 0 0 0 0 0 0 0 0 0 0 0 0
0 0 0 0 0 0 0 0 0 0 0 0 0 0 0 0 0 0 0 0 0 0 0 0 0 0 0 0 0 0 0 0 0 0 0 0 0 0 0 0 0 0 0 0
0 0 0 0 0 0 0 0 0 0 0 0 0 0 0 0 0 0 0 0 0 0 0 0 0 0 0 0 0 0 0 0 0 0 0 0 0 0 0 0 0 0 0 0
0 0 0 0 0 0 0 0 0 0 0 0 0 0 0 0 0 0 0 0 0 0 0 0 0 0 0 0 0 0 0 0 0 0 0 0 0 0 0 0 0 0 0 0
0 0 0 0 0 0 0 0 0 0 0 0 0 0 0 0 0 0 0 0 0 0 0 0 0 0 0 0 0 0 0 0 0 0 0 0 0 0 0 0 0 0 0 0
0 0 0 0 0 0 0 0 0 0 0 0 0 0 0 0 0 0 0 0 0 0 0 0 0 0 0 0 0 0 0 0 0 0 0 0 0 0 0 0 0 0 0 0
0 0 0 0 0 0 0 0 0 0 0 0 0 0 0 0 0 0 0 0 0 0 0 0 0 0 0 0 0 0 0 0 0 0 0 0 0 0 0 0 0 0 0 0
0 0 0 0 0 0 0 0 0 0 0 0 0 0 0 0 0 0 0 0 0 0 0 0 0 0 0 0 0 0 0 0 0 0 0 0 0 0 0 0 0 0 0 0
0 0 0 0 0 0 0 0 0 0 0 0 0 0 0 0 0 0 0 0 0 0 0 0 0 0 0 0 0 0 0 0 0 0 0 0 0 0 0 0 0 0 0 0
0 0 0 0 0 0 0 0 0 0 0 0 0 0 0 0 0 0 0 0 0 0 0 0 0 0 0 0 0 0 0 0 0 0 0 0 0 0 0 0 0 0 0 0
0 0 0 0 0 0 0 0 0 0 0 0 0 0 0 0 0 0 0 0 0 0 0 0 0 0 0 0 0 0 0 0 0 0 0 0 0 0 0 0 0 0 0 0
0 0 0 0 0 0 0 0 0 0 0 0 0 0 0 0 0 0 0 0 0 0 0 0 0 0 0 0 0 0 0 0 0 0 0 0 0 0 0 0 0 0 0 0
0 0 0 0 0 0 0 0 0 0 0 0 0 0 0 0 0 0 0 0 0 0 0 0 0 0 0 0 0 0 0 0 0 0 0 0 0 0 0 0 0 0 0 0
0 0 0 0 0 0 0 0 0 0 0 0 0 0 0 0 0 0 0 0 0 0 0 0 0 0 0 0 0 0 0 0 0 0 0 0 0 0 0 0 0 0 0 0
0 0 0 0 0 0 0 0 0 0 0 0 0 0 0 0 0 0 0 0 0 0 0 0 0 0 0 0 0 0 0 0 0 0 0 0 0 0 0 0 0 0 0 0
0 0 0 0 0 0 0 0 0 0 0 0 0 0 0 0 0 0 0 0 0 0 0 0 0 0 0 0 0 0 0 0 0 0 0 0 0 0 0 0 0 0 0 0
0 0 0 0 0 0 0 0 0 0 0 0 0 0 0 0 0 0 0 0 0 0 0 0 0 0 0 0 0 0 0 0 0 0 0 0 0 0 0 0 0 0 0 0
0 0 0 0 0 0 0 0 0 0 0 0 0 0 0 0 0 0 0 0 0 0 0 0 0 0 0 0 0 0 0 0 0 0 0 0 0 0 0 0 0 0 0 0
0 0 0 0 0 0 0 0 0 0 0 0 0 0 0 0 0 0 0 0 0 0 0 0 0 0 0 0 0 0 0 0 0 0 0 0 0 0 0 0 0 0 0 0
0 0 0 -0 0 0 0 0 0 0 0 0 0 0 0 0 0 0 0 0 0 0 0 0 0 0 0 0 0 0 0 0 0 0 0 0 0 0 0 0 0 0 0 0
0 0 0 0 0 0 0 0 0 0 0 0 0 0 0 0 0 0 0 0 0 0 0 0 0 0 0 0 0 0 0 0 0 0 0 0 0 0 0 0 0 0 0 0
0 0 0 0 0 0 0 0 0 0 0 0 0 0 0 0 0 0 0 0 0 0 0 0 0 0 0 0 0 0 0 0 0 0 0 0 0 0 0 0 0 0 0 0
Wind_Speed
7 5 3 6 6 6 9 9 9 10 11 12 7 5 5 4 4 3 4 4 4 4 4 4 4 3 3 3 3 3 2 2 2 2 2 2 2 2 2 2 2 2 2 3
6 5 5 8 9 9 10 8 10 10 14 9 6 4 4 5 4 5 5 6 5 4 4 4 4 4 4 3 3 3 2 2 3 3 3 3 2 2 2 2 2 2 2 3
6 4 3 10 10 10 8 8 8 12 13 6 6 7 6 5 4 6 6 6 5 4 4 4 4 3 3 3 3 2 2 3 3 3 3 3 3 3 3 3 2 2 3 3
3 2 9 9 2 6 9 9 9 9 8 7 8 7 5 4 4 5 5 5 5 4 4 4 3 2 2 2 2 2 2 3 3 3 3 3 3 3 3 3 3 3 3 3
2 5 11 8 3 4 5 8 7 9 10 8 6 5 5 3 2 4 4 4 3 3 3 3 3 2 2 2 2 2 3 3 3 3 3 3 3 3 3 3 3 3 3 3
4 4 9 6 2 2 2 7 3 5 7 6 3 4 6 3 3 4 3 3 3 3 3 3 3 2 1 1 2 3 4 4 3 3 3 3 3 3 3 2 3 3 3 3
7 8 11 6 2 3 4 6 1 2 4 3 4 6 4 4 4 3 3 3 3 2 2 3 3 2 1 2 3 4 4 3 3 3 3 3 3 3 3 2 2 2 3 3
5 7 11 3 5 7 5 1 1 2 2 3 4 4 4 4 4 4 3 4 3 3 3 3 2 2 2 3 4 4 3 3 3 3 3 2 2 3 2 2 2 2 2 3
10 9 2 3 4 2 1 2 2 3 3 3 4 4 4 4 3 3 3 3 3 3 4 4 3 2 3 5 4 4 3 3 3 3 3 3 2 2 2 2 1 2 2 3
5 7 4 3 2 2 2 3 3 3 3 3 4 4 4 4 3 3 3 3 3 3 4 5 4 3 3 5 4 3 3 3 3 3 3 3 2 2 2 2 2 2 2 2
6 6 5 3 2 3 3 2 3 3 3 3 3 4 4 4 4 3 4 4 3 3 4 5 5 4 4 4 3 3 3 3 3 3 2 2 2 2 3 2 2 2 2 2
7 5 4 4 2 2 3 4 4 4 4 4 3 4 4 4 4 3 4 4 4 4 4 5 4 5 4 4 3 2 3 3 2 2 2 2 2 3 4 4 5 5 5 4
6 3 4 5 3 3 3 4 4 4 4 5 4 3 3 4 4 3 4 4 5 5 5 5 5 5 4 3 3 3 3 3 2 2 2 2 2 2 3 4 5 6 6 7
3 2 4 4 4 4 3 4 4 3 3 3 3 3 3 3 3 4 4 4 4 5 5 4 5 6 5 3 3 3 3 3 3 2 2 2 2 2 2 3 4 4 6 7
4 4 5 3 3 3 2 2 2 3 3 3 2 3 3 3 4 5 5 4 4 4 5 4 5 6 4 3 3 3 3 2 2 2 2 2 2 2 2 2 3 4 4 5
3 3 3 4 5 4 3 3 3 5 4 3 3 4 4 4 4 5 4 3 3 5 6 5 6 6 4 3 3 3 3 3 3 2 2 2 2 2 2 2 2 3 3 3
3 4 4 4 5 5 4 4 4 4 4 4 4 4 4 4 4 5 5 4 4 5 6 6 6 5 4 3 3 3 2 2 3 2 2 2 2 2 2 2 3 3 3 4
5 5 4 4 4 4 4 4 4 4 4 4 4 3 3 4 5 6 6 5 5 6 6 5 5 4 3 3 3 2 2 2 2 2 2 2 2 2 2 3 3 4 4 4
3 4 3 3 3 3 4 4 4 4 4 3 3 4 4 5 5 5 4 4 5 6 6 4 6 4 4 4 3 2 2 2 2 2 2 3 3 2 3 3 3 3 3 3
1 1 2 3 3 3 4 4 3 4 3 3 3 4 5 5 4 4 4 5 5 5 5 5 4 4 4 4 3 2 2 3 3 3 2 2 3 3 3 3 3 3 3 3
2 2 2 3 3 3 4 4 3 4 4 3 4 5 5 5 4 3 3 5 5 3 4 5 3 3 3 3 3 2 2 2 3 3 3 3 3 3 3 3 3 3 4 4
2 2 3 3 3 4 3 3 3 4 4 4 4 4 4 5 4 4 5 5 5 5 4 3 3 4 4 4 2 2 2 3 3 3 3 3 3 3 4 4 4 4 4 4
2 3 3 3 3 4 4 3 3 3 4 4 4 4 4 4 3 4 5 3 3 5 4 3 5 6 5 3 2 2 2 3 3 3 3 3 3 3 4 4 4 4 4 4
2 2 3 3 2 2 4 4 3 3 3 4 4 4 4 4 4 4 4 5 5 5 4 5 6 6 5 2 2 2 2 2 2 2 2 2 2 3 3 3 4 3 4 4
2 2 2 2 2 3 3 3 3 3 3 3 4 4 3 3 3 3 3 4 5 5 3 4 6 5 3 2 2 2 2 2 2 2 2 2 2 2 3 3 3 3 3 3
2 2 2 3 3 3 2 2 2 3 2 3 4 3 2 2 3 3 3 3 3 3 3 3 3 3 2 2 2 2 3 3 3 2 2 3 3 3 3 3 4 3 3 4
2 2 2 2 2 2 2 2 2 3 2 3 4 3 3 2 2 2 3 2 2 2 2 2 2 2 2 2 2 3 3 3 3 3 2 3 3 3 3 4 4 3 4 4
Wind_Direction
252 258 240 241 248 220 216 223 229 252 258 271 279 278 286 295 302 308 312 310 310 315 319 325 325 327 329 329 334 340 345 337 322 326 329 337 338 330 328 328 323 316 312 309
269 260 256 264 255 236 235 237 241 259 266 268 278 275 278 282 286 290 292 296 303 311 314 312 312 317 322 322 327 337 350 340 347 353 353 352 343 340 341 336 331 329 317 307
269 298 316 265 237 215 218 218 211 236 253 275 283 276 269 272 273 276 289 298 302 301 295 295 294 302 298 305 322 340 354 349 348 346 350 350 350 353 347 335 331 321 315 313
265 345 248 248 178 198 219 235 224 239 259 264 263 274 270 257 259 282 295 302 305 308 307 304 307 313 317 329 334 343 348 346 347 346 342 344 350 344 336 334 327 319 318 313
194 246 272 281 233 182 211 255 228 236 258 273 290 300 276 258 262 273 288 296 296 304 309 313 314 316 328 335 340 340 329 326 328 325 324 329 329 326 324 325 324 323 326 325
193 222 246 254 208 189 153 268 242 220 249 271 303 284 280 340 328 317 325 329 331 339 344 335 325 319 321 315 319 306 306 309 315 314 310 305 308 315 324 321 317 322 323 325
213 236 258 255 216 134 184 260 293 236 255 257 236 243 294 333 336 335 336 336 343 345 338 327 331 341 320 315 301 304 314 317 319 316 307 307 318 326 329 329 330 325 325 328
186 225 253 201 145 184 222 286 297 292 280 263 264 288 310 324 327 331 336 337 343 340 330 332 343 346 323 309 309 320 323 324 320 316 314 317 322 327 332 327 321 322 329 333
198 220 246 166 192 232 305 281 292 292 296 282 278 283 294 300 301 310 319 322 333 331 321 326 336 331 303 306 321 327 329 323 318 321 325 325 318 319 328 326 317 318 324 322
249 260 256 248 265 300 292 274 293 295 294 277 271 276 280 283 290 299 308 315 324 320 312 313 326 326 305 310 325 320 316 316 319 320 325 332 325 316 309 305 302 304 306 307
249 273 295 262 250 276 291 297 292 289 289 287 279 277 276 283 291 297 305 313 311 301 296 301 314 315 312 315 322 315 310 311 315 311 309 319 316 307 296 291 282 281 273 272
234 229 230 260 290 306 299 299 298 295 301 309 289 282 290 288 295 302 306 313 309 304 298 298 303 301 306 308 303 294 302 306 304 301 302 299 303 318 324 319 327 324 321 319
239 255 245 268 296 311 294 298 301 296 290 300 309 304 295 292 296 303 304 304 298 296 294 294 296 296 297 297 293 276 271 281 286 287 287 289 292 296 310 327 326 324 327 325
247 257 267 264 272 294 298 303 310 312 308 300 299 304 301 296 296 293 290 290 292 292 290 289 290 290 292 287 280 275 273 271 267 270 272 274 276 277 281 294 311 314 319 319
252 240 240 267 290 299 305 315 312 302 306 309 308 299 294 289 290 291 295 299 298 291 287 286 286 288 290 278 271 271 273 272 267 264 268 266 268 270 271 274 284 299 316 323
267 259 250 259 269 280 289 284 277 283 290 294 297 292 287 283 286 289 291 287 282 285 288 287 284 286 290 274 270 271 267 271 273 261 259 262 264 265 269 271 277 288 296 303
224 248 248 257 262 268 264 257 257 269 279 280 282 290 296 299 297 292 290 284 272 276 279 277 278 284 283 270 266 272 271 270 264 257 252 252 253 255 259 262 267 276 281 288
232 240 237 242 252 263 273 272 268 271 272 277 287 290 286 282 283 290 298 305 301 295 286 274 274 279 280 277 265 261 258 258 254 254 259 259 258 257 257 258 262 269 282 291
250 255 260 263 264 262 268 273 274 273 275 277 277 276 275 274 274 283 295 299 294 292 292 288 299 311 292 282 280 246 248 255 257 257 255 255 260 255 252 255 259 262 269 277
277 278 276 281 282 266 268 276 280 279 276 266 268 277 282 280 276 279 283 279 267 266 282 293 294 287 281 278 291 269 253 250 254 259 256 253 254 258 258 257 257 259 261 261
282 289 292 290 289 282 271 271 272 275 279 267 258 264 273 282 280 273 277 285 286 282 284 285 282 281 281 276 271 258 251 248 249 251 250 250 254 258 259 260 261 261 261 262
278 280 284 286 286 289 288 277 265 270 279 276 267 265 273 282 283 276 258 258 281 297 298 287 281 280 285 284 265 257 255 254 254 252 251 247 246 253 259 260 261 263 263 263
279 279 283 282 280 288 298 287 270 267 270 271 269 266 265 269 271 273 285 275 282 291 294 289 295 296 297 289 269 265 262 261 262 261 258 251 246 248 254 258 259 259 261 264
286 286 283 285 289 291 293 293 291 278 273 276 271 264 262 275 278 255 261 284 294 297 298 297 304 312 318 313 295 284 278 275 273 271 271 271 267 260 258 259 263 264 262 265
275 280 284 293 287 278 281 297 307 302 299 294 290 282 267 252 261 282 288 288 295 303 302 308 317 323 324 308 298 289 284 278 275 276 275 277 276 275 273 272 271 272 271 270
268 273 273 266 264 272 282 287 289 293 297 301 302 298 291 282 274 281 287 291 295 299 300 304 309 311 306 302 299 295 291 292 292 286 279 279 278 276 278 279 280 277 277 276
286 285 291 296 285 267 266 266 273 282 280 280 290 296 300 301 300 299 300 302 305 306 308 310 309 306 307 308 307 302 299 297 293 289 286 281 279 278 280 281 281 280 280 280